Hourly Weather Roundup
Issued by NWS Central Illinois

Home | Current Version | Previous Version | Text Only | Print | Product List | Glossary On
Versions: 1 2 3 4 5 6 7 8 9 10 11 12 13 14 15 16 17 18 19 20 21 22 23 24 25 26 27 28 29 30 31 32 33 34 35 36 37 38 39 40 41 42 43 44 45 46 47 48 49 50
000
NZUS43 KILX 280010
HWRILX

AREA WEATHER ROUNDUP
NATIONAL WEATHER SERVICE, LINCOLN IL
700 PM CDT THU AUG 27 2015


CITY           SKY/WX    TMP DP  RH WIND       PRES   REMARKS
BLOOMINGTON    CLEAR     73  60  63 CALM      30.12F
6HR MIN TEMP:  72; 6HR MAX TEMP:  77;

CHAMPAIGN      PTCLDY    73  60  63 NE6       30.11F
6HR MIN TEMP:  73; 6HR MAX TEMP:  79;

DANVILLE       MOCLDY    71  62  75 NE5       30.08F
6HR MIN TEMP:  71; 6HR MAX TEMP:  76;

DECATUR        PTCLDY    74  59  59 SE3       30.10F
6HR MIN TEMP:  74; 6HR MAX TEMP:  79;

EFFINGHAM      PTCLDY    73  62  69 CALM      30.11F
FLORA          CLEAR     74  58  55 CALM      30.10F
6HR MIN TEMP:  74; 6HR MAX TEMP:  81;

GALESBURG      PTCLDY    68  59  73 E3        30.09F
JACKSONVILLE   PTCLDY    74  60  61 SE3       30.08S
6HR MIN TEMP:  74; 6HR MAX TEMP:  78;

LACON          PTCLDY    70  59  67 SE3       30.09F
6HR MIN TEMP:  70; 6HR MAX TEMP:  74;

LAWRENCEVILLE  CLEAR     78  59  51 CALM      30.10F
6HR MIN TEMP:  77; 6HR MAX TEMP:  83;

LITCHFIELD     PTCLDY    71  60  66 SE3       30.10S
$$


CITY           SKY/WX    TMP DP  RH WIND       PRES   REMARKS
LINCOLN        PTCLDY    75  57  54 CALM      30.09F
6HR MIN TEMP:  75; 6HR MAX TEMP:  79;

MACOMB         PTCLDY    69  60  74 SE3       30.11S
MATTOON        CLEAR     72  59  63 CALM      30.10F
6HR MIN TEMP:  72; 6HR MAX TEMP:  80;

MT CARMEL AP   CLEAR     75  61  60 CALM      30.09F
OLNEY-NOBLE AP PTCLDY    72  63  73 CALM      30.09F
PARIS          PTCLDY    74  66  75 CALM      30.10F
6HR MIN TEMP:  74; 6HR MAX TEMP:  80;

PEORIA         CLEAR     74  57  55 E5        30.09F
6HR MIN TEMP:  73; 6HR MAX TEMP:  77;

PONTIAC        MOCLDY    71  63  75 CALM      30.12F
RANTOUL        MOCLDY    75  60  60 CALM      30.11S
6HR MIN TEMP:  72; 6HR MAX TEMP:  78;

ROBINSON       CLEAR     76  62  60 CALM      30.11S
6HR MIN TEMP:  75; 6HR MAX TEMP:  82;

SPRINGFIELD    PTCLDY    74  57  55 E6        30.09F
6HR MIN TEMP:  74; 6HR MAX TEMP:  79;

TAYLORVILLE    PTCLDY    72  61  68 SE3       30.09F
$$

...REGIONAL REPORTS...


CITY           SKY/WX    TMP DP  RH WIND       PRES   REMARKS
CHICAGO O`HARE MOCLDY    69  52  54 E13       30.12F
KANKAKEE       CLOUDY    70  60  69 CALM      30.12F
MOLINE         PTCLDY    70  60  70 SE7       30.06F
MOUNT STERLING MOCLDY    70  60  70 CALM      30.08S
MOUNT VERNON   PTCLDY    73  59  60 CALM      30.10F
PITTSFIELD     MOCLDY    71  60  68 CALM      30.09F
QUINCY         MOCLDY    71  59  65 E6        30.07S
ROCKFORD       CLOUDY    69  57  65 SE6       30.13F
$$


CITY           SKY/WX    TMP DP  RH WIND       PRES   REMARKS
BURLINGTON     MOCLDY    71  61  70 S7        30.07F
CEDAR RAPIDS   CLOUDY    70  63  78 N3        30.11R
DES MOINES     MOCLDY    73  61  65 SE12      30.00F
KIRKSVILLE     MOCLDY    72  60  66 SE7       30.06F
OTTUMWA        PTCLDY    72  61  68 SE9       30.05R
ST LOUIS       MOCLDY    76  54  46 SE7       30.09S
$$


CITY           SKY/WX    TMP DP  RH WIND       PRES   REMARKS
TERRE HAUTE    MOCLDY    76  63  64 NE3       30.10F
EVANSVILLE     CLEAR     77  60  55 CALM      30.09F
INDIANAPOLIS   MOCLDY    73  55  53 S5        30.11R
LAFAYETTE      PTCLDY    71  58  63 N5        30.11F
MADISON        MOCLDY    71  56  58 SW7       30.10S
MILWAUKEE      MOCLDY    66  53  63 S8        30.12F
$$





USA.gov is the U.S. government's official web portal to all federal, state and local government web resources and services.